View from above orbital plane
|
View from above satellite
|
Ground track
|
The orbit data is extracted from the following two-line orbital elements,
1 15755U 85042A 21022.68434673 -.00000052 00000-0 -22414-5 0 9997
2 15755 71.1126 111.5798 0034980 171.7089 188.4623 14.20459652847225
Epoch (UTC): | 22 January 2021 16:25:27 |
Eccentricity: | 0.0034980 |
inclination: | 71.1126° |
perigee height: | 798 km |
apogee height: | 849 km |
right ascension of ascending node: | 111.5798° |
argument of perigee: | 171.7089° |
revolutions per day: | 14.20459652 |
mean anomaly at epoch: | 188.4623° |
orbit number at epoch: | 84722 |
The dashed part of the orbit path shows where the satellite is in the earth's shadow,
|
|